SWA3807 KOAK-KLAX

Flight info

Callsign SWA3807
Flight time 1h 2m
Altitude 35000
Route CNDEL5 SUSEY EBAYE BURGL IRNMN2
Aircraft B737/M-SDE2E3FGHIRWXY/LB1

Departure

Time 2026-04-21 00:51
Airport San Francisco Bay Oakland International Airport (KOAK)

Arrival

Time 2026-04-21 01:53
Airport Los Angeles International Airport (KLAX)
Time Latitude Longitude Altitude Speed Heading
2026-04-21 00:21 37.71087 -122.21549 14 ft 0 kts 307°
2026-04-21 00:40 37.71084 -122.21544 14 ft 2 kts 307°
2026-04-21 00:40 37.71075 -122.21529 14 ft 2 kts 307°
2026-04-21 00:41 37.71066 -122.21514 14 ft 2 kts 307°
2026-04-21 00:41 37.71057 -122.21499 14 ft 2 kts 307°
2026-04-21 00:41 37.71048 -122.21484 14 ft 2 kts 307°
2026-04-21 00:42 37.71041 -122.21471 14 ft 2 kts 307°
2026-04-21 00:42 37.71035 -122.21460 14 ft 0 kts 307°
2026-04-21 00:42 37.71029 -122.21448 13 ft 0 kts 279°
2026-04-21 00:43 37.71028 -122.21439 14 ft 1 kts 275°
2026-04-21 00:43 37.71028 -122.21437 14 ft 0 kts 275°
2026-04-21 00:45 37.71020 -122.21458 13 ft 3 kts 220°
2026-04-21 00:45 37.70990 -122.21484 14 ft 7 kts 216°
2026-04-21 00:45 37.70925 -122.21550 13 ft 15 kts 227°
2026-04-21 00:45 37.70904 -122.21628 13 ft 6 kts 272°
2026-04-21 00:46 37.70931 -122.21676 13 ft 7 kts 307°
2026-04-21 00:46 37.70967 -122.21732 14 ft 10 kts 309°
2026-04-21 00:46 37.71035 -122.21822 14 ft 17 kts 317°
2026-04-21 00:46 37.71132 -122.21951 14 ft 23 kts 311°
2026-04-21 00:47 37.71252 -122.22130 13 ft 28 kts 311°
2026-04-21 00:47 37.71225 -122.22312 13 ft 26 kts 221°
2026-04-21 00:47 37.71119 -122.22483 13 ft 24 kts 286°
2026-04-21 00:47 37.71232 -122.22668 13 ft 28 kts 309°
2026-04-21 00:48 37.71373 -122.22885 13 ft 35 kts 310°
2026-04-21 00:48 37.71542 -122.23142 13 ft 38 kts 308°
2026-04-21 00:48 37.71710 -122.23392 13 ft 36 kts 309°
2026-04-21 00:48 37.71843 -122.23657 13 ft 35 kts 301°
2026-04-21 00:49 37.71980 -122.23904 13 ft 30 kts 309°
2026-04-21 00:49 37.72084 -122.24064 12 ft 13 kts 293°
2026-04-21 00:49 37.72081 -122.24115 12 ft 0 kts 233°
2026-04-21 00:49 37.72078 -122.24120 12 ft 2 kts 227°
2026-04-21 00:50 37.72031 -122.24169 12 ft 17 kts 219°
2026-04-21 00:50 37.71980 -122.24177 12 ft 6 kts 128°
2026-04-21 00:50 37.71881 -122.24027 13 ft 54 kts 129°
2026-04-21 00:50 37.71484 -122.23428 13 ft 120 kts 130°
2026-04-21 00:51 37.70830 -122.22457 225 ft 155 kts 131°
2026-04-21 00:51 37.70135 -122.21423 869 ft 159 kts 135°
2026-04-21 00:51 37.69277 -122.20475 1382 ft 169 kts 146°
2026-04-21 00:51 37.68337 -122.19534 1918 ft 182 kts 144°
2026-04-21 00:52 37.67382 -122.18395 2405 ft 199 kts 141°
2026-04-21 00:52 37.66334 -122.17138 2832 ft 219 kts 142°
2026-04-21 00:52 37.65140 -122.15797 3099 ft 238 kts 142°
2026-04-21 00:52 37.63866 -122.14362 3375 ft 248 kts 142°
2026-04-21 00:53 37.62600 -122.12917 3908 ft 246 kts 143°
2026-04-21 00:53 37.61308 -122.11446 4391 ft 257 kts 143°
2026-04-21 00:53 37.59918 -122.10057 4805 ft 247 kts 151°
2026-04-21 00:53 37.58402 -122.09215 5228 ft 239 kts 166°
2026-04-21 00:54 37.56795 -122.08719 5652 ft 240 kts 169°
2026-04-21 00:54 37.55161 -122.08242 6077 ft 240 kts 168°
2026-04-21 00:54 37.53541 -122.07710 6502 ft 239 kts 167°
2026-04-21 00:54 37.51926 -122.07143 6926 ft 243 kts 166°
2026-04-21 00:55 37.50307 -122.06567 7346 ft 242 kts 167°
2026-04-21 00:55 37.48665 -122.05984 7774 ft 247 kts 166°
2026-04-21 00:55 37.47016 -122.05402 8196 ft 246 kts 166°
2026-04-21 00:55 37.45391 -122.04829 8609 ft 246 kts 166°
2026-04-21 00:56 37.43726 -122.04243 9029 ft 250 kts 166°
2026-04-21 00:56 37.42009 -122.03642 9458 ft 262 kts 166°
2026-04-21 00:56 37.40193 -122.03007 9883 ft 274 kts 166°
2026-04-21 00:56 37.38328 -122.02355 10302 ft 284 kts 166°
2026-04-21 00:57 37.36417 -122.01653 10719 ft 294 kts 163°
2026-04-21 00:57 37.34546 -122.00526 11137 ft 306 kts 150°
2026-04-21 00:57 37.32834 -121.98875 11557 ft 315 kts 144°
2026-04-21 00:57 37.31181 -121.97038 11977 ft 318 kts 143°
2026-04-21 00:58 37.29523 -121.95179 12394 ft 321 kts 143°
2026-04-21 00:58 37.27837 -121.93342 12812 ft 322 kts 144°
2026-04-21 00:58 37.26136 -121.91538 13223 ft 325 kts 145°
2026-04-21 00:58 37.24394 -121.89717 13640 ft 325 kts 145°
2026-04-21 00:59 37.22644 -121.87899 14057 ft 327 kts 145°
2026-04-21 00:59 37.20887 -121.86076 14472 ft 331 kts 146°
2026-04-21 00:59 37.19115 -121.84238 14886 ft 333 kts 146°
2026-04-21 00:59 37.17318 -121.82372 15303 ft 336 kts 146°
2026-04-21 01:00 37.15511 -121.80493 15722 ft 338 kts 146°
2026-04-21 01:00 37.13713 -121.78627 16134 ft 339 kts 146°
2026-04-21 01:00 37.11886 -121.76730 16556 ft 341 kts 146°
2026-04-21 01:00 37.10052 -121.74827 16973 ft 342 kts 146°
2026-04-21 01:01 37.08226 -121.72932 17386 ft 343 kts 146°
2026-04-21 01:01 37.06403 -121.71044 17797 ft 344 kts 147°
2026-04-21 01:01 37.04563 -121.69139 18208 ft 344 kts 147°
2026-04-21 01:01 37.02700 -121.67211 18612 ft 344 kts 147°
2026-04-21 01:02 37.00873 -121.65322 19005 ft 344 kts 147°
2026-04-21 01:02 36.99020 -121.63408 19416 ft 344 kts 147°
2026-04-21 01:02 36.97191 -121.61521 19816 ft 344 kts 147°
2026-04-21 01:02 36.95349 -121.59623 20223 ft 343 kts 147°
2026-04-21 01:03 36.93499 -121.57716 20619 ft 343 kts 148°
2026-04-21 01:03 36.91682 -121.55843 21026 ft 342 kts 148°
2026-04-21 01:03 36.89839 -121.53945 21442 ft 342 kts 148°
2026-04-21 01:03 36.88015 -121.52068 21847 ft 341 kts 148°
2026-04-21 01:04 36.86175 -121.50175 22258 ft 341 kts 148°
2026-04-21 01:04 36.84364 -121.48314 22667 ft 340 kts 148°
2026-04-21 01:04 36.82529 -121.46429 23078 ft 339 kts 148°
2026-04-21 01:04 36.80690 -121.44546 23262 ft 350 kts 148°
2026-04-21 01:05 36.78759 -121.42590 23191 ft 370 kts 148°
2026-04-21 01:05 36.76703 -121.40506 23175 ft 382 kts 148°
2026-04-21 01:05 36.74665 -121.38422 23169 ft 385 kts 148°
2026-04-21 01:05 36.72558 -121.36262 23347 ft 394 kts 147°
2026-04-21 01:06 36.70477 -121.34123 24239 ft 391 kts 148°
2026-04-21 01:06 36.68373 -121.31967 24745 ft 397 kts 148°
2026-04-21 01:06 36.66223 -121.29766 25359 ft 400 kts 148°
2026-04-21 01:06 36.64062 -121.27557 26003 ft 402 kts 148°
2026-04-21 01:07 36.61927 -121.25372 26807 ft 399 kts 148°
2026-04-21 01:07 36.59800 -121.23200 27386 ft 401 kts 148°
2026-04-21 01:07 36.57667 -121.21024 28172 ft 397 kts 148°
2026-04-21 01:07 36.55537 -121.18851 28834 ft 396 kts 148°
2026-04-21 01:08 36.53379 -121.16660 29119 ft 405 kts 148°
2026-04-21 01:08 36.51182 -121.14436 29412 ft 412 kts 148°
2026-04-21 01:08 36.48965 -121.12191 30026 ft 412 kts 148°
2026-04-21 01:08 36.46769 -121.09959 30749 ft 408 kts 148°
2026-04-21 01:09 36.44582 -121.07712 31425 ft 406 kts 146°
2026-04-21 01:09 36.42490 -121.05293 31621 ft 419 kts 142°
2026-04-21 01:09 36.40460 -121.02618 31747 ft 432 kts 139°
2026-04-21 01:09 36.38464 -120.99800 32112 ft 437 kts 137°
2026-04-21 01:10 36.36516 -120.96960 32718 ft 436 kts 137°
2026-04-21 01:10 36.34540 -120.94061 32933 ft 438 kts 137°
2026-04-21 01:10 36.30617 -120.88323 32953 ft 433 kts 137°
2026-04-21 01:11 36.26674 -120.82620 32954 ft 434 kts 137°
2026-04-21 01:11 36.22683 -120.76894 32959 ft 434 kts 137°
2026-04-21 01:12 36.18729 -120.71245 32957 ft 434 kts 137°
2026-04-21 01:12 36.14766 -120.65599 32957 ft 436 kts 137°
2026-04-21 01:13 36.10815 -120.59978 32957 ft 435 kts 137°
2026-04-21 01:13 36.06834 -120.54324 32960 ft 436 kts 137°
2026-04-21 01:14 36.02877 -120.48715 32968 ft 437 kts 137°
2026-04-21 01:14 35.98894 -120.43079 32967 ft 436 kts 136°
2026-04-21 01:15 35.94888 -120.37418 32956 ft 437 kts 136°
2026-04-21 01:15 35.90896 -120.31784 32953 ft 435 kts 137°
2026-04-21 01:16 35.86731 -120.26364 32942 ft 430 kts 144°
2026-04-21 01:16 35.82146 -120.22233 32954 ft 425 kts 153°
2026-04-21 01:17 35.77115 -120.18478 32946 ft 423 kts 155°
2026-04-21 01:17 35.72056 -120.14793 32950 ft 424 kts 155°
2026-04-21 01:18 35.66957 -120.11036 32950 ft 425 kts 155°
2026-04-21 01:18 35.61909 -120.07268 32953 ft 426 kts 154°
2026-04-21 01:19 35.56871 -120.03475 32958 ft 424 kts 154°
2026-04-21 01:19 35.51815 -119.99666 32969 ft 425 kts 154°
2026-04-21 01:20 35.46795 -119.95889 32973 ft 426 kts 154°
2026-04-21 01:20 35.41727 -119.92084 32970 ft 427 kts 154°
2026-04-21 01:21 35.36654 -119.88281 32974 ft 427 kts 154°
2026-04-21 01:21 35.31580 -119.84481 32982 ft 426 kts 154°
2026-04-21 01:22 35.26581 -119.80536 32990 ft 430 kts 150°
2026-04-21 01:22 35.21820 -119.76116 33001 ft 433 kts 148°
2026-04-21 01:23 35.17092 -119.71582 33000 ft 432 kts 148°
2026-04-21 01:23 35.12349 -119.67077 32994 ft 432 kts 148°
2026-04-21 01:24 35.07577 -119.62595 32853 ft 428 kts 148°
2026-04-21 01:24 35.05267 -119.60431 32465 ft 421 kts 148°
2026-04-21 01:24 35.02947 -119.58264 31948 ft 422 kts 148°
2026-04-21 01:25 35.00597 -119.56079 31286 ft 423 kts 148°
2026-04-21 01:25 34.98259 -119.53912 30567 ft 424 kts 148°
2026-04-21 01:25 34.95912 -119.51737 29958 ft 423 kts 147°
2026-04-21 01:25 34.93560 -119.49560 29443 ft 429 kts 147°
2026-04-21 01:26 34.91197 -119.47375 29052 ft 424 kts 147°
2026-04-21 01:26 34.88858 -119.45235 29011 ft 417 kts 148°
2026-04-21 01:26 34.84144 -119.41015 28798 ft 421 kts 148°
2026-04-21 01:27 34.81783 -119.38912 28190 ft 419 kts 148°
2026-04-21 01:27 34.79453 -119.36839 27565 ft 417 kts 148°
2026-04-21 01:27 34.77121 -119.34762 26978 ft 413 kts 149°
2026-04-21 01:27 34.74818 -119.32712 26413 ft 409 kts 149°
2026-04-21 01:28 34.72550 -119.30706 25845 ft 404 kts 149°
2026-04-21 01:28 34.70284 -119.28722 25277 ft 400 kts 149°
2026-04-21 01:28 34.68203 -119.26907 24761 ft 396 kts 149°
2026-04-21 01:28 34.65963 -119.24956 24213 ft 391 kts 149°
2026-04-21 01:29 34.63780 -119.23057 24051 ft 379 kts 149°
2026-04-21 01:29 34.61639 -119.21207 23855 ft 381 kts 149°
2026-04-21 01:29 34.59469 -119.19344 23468 ft 381 kts 149°
2026-04-21 01:29 34.57332 -119.17509 22965 ft 376 kts 149°
2026-04-21 01:30 34.55216 -119.15683 22431 ft 372 kts 149°
2026-04-21 01:30 34.53124 -119.13847 21903 ft 371 kts 149°
2026-04-21 01:30 34.51080 -119.12037 21379 ft 367 kts 149°
2026-04-21 01:30 34.49021 -119.10207 20850 ft 363 kts 148°
2026-04-21 01:31 34.46988 -119.08401 20314 ft 359 kts 149°
2026-04-21 01:31 34.44915 -119.06860 19811 ft 352 kts 155°
2026-04-21 01:31 34.42849 -119.05257 19298 ft 351 kts 149°
2026-04-21 01:31 34.40900 -119.03499 18774 ft 349 kts 147°
2026-04-21 01:32 34.38997 -119.01683 18251 ft 346 kts 147°
2026-04-21 01:32 34.37116 -118.99900 17737 ft 343 kts 148°
2026-04-21 01:32 34.35228 -118.98174 17241 ft 339 kts 148°
2026-04-21 01:32 34.33338 -118.96490 16939 ft 335 kts 148°
2026-04-21 01:33 34.31446 -118.94787 16386 ft 342 kts 147°
2026-04-21 01:33 34.29567 -118.93079 15813 ft 342 kts 147°
2026-04-21 01:33 34.27657 -118.91335 15266 ft 339 kts 147°
2026-04-21 01:33 34.25792 -118.89634 14754 ft 336 kts 147°
2026-04-21 01:34 34.23940 -118.87941 14228 ft 333 kts 146°
2026-04-21 01:34 34.22115 -118.86262 13759 ft 329 kts 146°
2026-04-21 01:34 34.20308 -118.84597 13321 ft 324 kts 146°
2026-04-21 01:34 34.18526 -118.82954 13106 ft 312 kts 146°
2026-04-21 01:35 34.16855 -118.81413 12952 ft 300 kts 146°
2026-04-21 01:35 34.15250 -118.79843 12594 ft 297 kts 142°
2026-04-21 01:35 34.13711 -118.78176 12135 ft 297 kts 140°
2026-04-21 01:35 34.12196 -118.76478 11751 ft 294 kts 140°
2026-04-21 01:36 34.10702 -118.74809 11388 ft 291 kts 140°
2026-04-21 01:36 34.09215 -118.73171 11001 ft 289 kts 140°
2026-04-21 01:36 34.07745 -118.71568 10637 ft 286 kts 140°
2026-04-21 01:36 34.06270 -118.69968 10250 ft 283 kts 140°
2026-04-21 01:37 34.04822 -118.68398 9965 ft 278 kts 140°
2026-04-21 01:37 34.03501 -118.66722 9777 ft 271 kts 129°
2026-04-21 01:37 34.02692 -118.64690 9397 ft 276 kts 106°
2026-04-21 01:37 34.02430 -118.62387 9033 ft 277 kts 97°
2026-04-21 01:38 34.02288 -118.60086 8699 ft 275 kts 97°
2026-04-21 01:38 34.02132 -118.57804 8354 ft 273 kts 97°
2026-04-21 01:38 34.01942 -118.55544 8033 ft 270 kts 98°
2026-04-21 01:38 34.01737 -118.53321 7731 ft 268 kts 98°
2026-04-21 01:39 34.01524 -118.51089 7503 ft 261 kts 98°
2026-04-21 01:39 34.01324 -118.48979 7438 ft 249 kts 98°
2026-04-21 01:39 34.01134 -118.46949 7363 ft 238 kts 98°
2026-04-21 01:39 34.01092 -118.45005 7211 ft 233 kts 86°
2026-04-21 01:40 34.01374 -118.43080 6918 ft 235 kts 79°
2026-04-21 01:40 34.01757 -118.41167 6653 ft 234 kts 78°
2026-04-21 01:40 34.02121 -118.39268 6401 ft 231 kts 79°
2026-04-21 01:40 34.02457 -118.37370 6151 ft 233 kts 79°
2026-04-21 01:41 34.02768 -118.35463 5976 ft 230 kts 82°
2026-04-21 01:41 34.02987 -118.33546 5975 ft 232 kts 85°
2026-04-21 01:41 34.03158 -118.31718 5975 ft 232 kts 85°
2026-04-21 01:41 34.03330 -118.29888 5972 ft 231 kts 85°
2026-04-21 01:42 34.03522 -118.28001 5973 ft 231 kts 84°
2026-04-21 01:42 34.03738 -118.26077 5966 ft 231 kts 84°
2026-04-21 01:42 34.03958 -118.24159 5968 ft 231 kts 84°
2026-04-21 01:42 34.04176 -118.22237 5976 ft 231 kts 84°
2026-04-21 01:43 34.04391 -118.20330 5979 ft 231 kts 84°
2026-04-21 01:43 34.04607 -118.18411 5971 ft 231 kts 84°
2026-04-21 01:43 34.04823 -118.16485 5927 ft 233 kts 84°
2026-04-21 01:43 34.05042 -118.14532 5614 ft 235 kts 84°
2026-04-21 01:44 34.05258 -118.12611 5255 ft 235 kts 84°
2026-04-21 01:44 34.05478 -118.10662 4887 ft 235 kts 83°
2026-04-21 01:44 34.05698 -118.08714 4520 ft 235 kts 83°
2026-04-21 01:44 34.05786 -118.06755 4147 ft 233 kts 100°
2026-04-21 01:45 34.05035 -118.05081 3776 ft 231 kts 139°
2026-04-21 01:45 34.03634 -118.04195 3412 ft 229 kts 160°
2026-04-21 01:45 34.02121 -118.03572 3067 ft 228 kts 162°
2026-04-21 01:45 34.00648 -118.02962 2984 ft 219 kts 161°
2026-04-21 01:46 33.99169 -118.02522 2972 ft 220 kts 180°
2026-04-21 01:46 33.97781 -118.03117 2971 ft 207 kts 222°
2026-04-21 01:46 33.97200 -118.04565 2972 ft 188 kts 269°
2026-04-21 01:46 33.97594 -118.05978 2985 ft 179 kts 298°
2026-04-21 01:47 33.98083 -118.07359 2971 ft 176 kts 283°
2026-04-21 01:47 33.98241 -118.08810 2971 ft 175 kts 270°
2026-04-21 01:47 33.98189 -118.10277 2968 ft 175 kts 264°
2026-04-21 01:47 33.98060 -118.11716 2967 ft 174 kts 263°
2026-04-21 01:48 33.97915 -118.13173 2966 ft 174 kts 263°
2026-04-21 01:48 33.97769 -118.14630 2968 ft 175 kts 263°
2026-04-21 01:48 33.97640 -118.16092 2970 ft 176 kts 264°
2026-04-21 01:48 33.97509 -118.17557 2971 ft 177 kts 263°
2026-04-21 01:49 33.97365 -118.19032 2973 ft 177 kts 263°
2026-04-21 01:49 33.97214 -118.20489 2973 ft 177 kts 263°
2026-04-21 01:49 33.97066 -118.21968 2973 ft 177 kts 263°
2026-04-21 01:49 33.96921 -118.23438 2853 ft 179 kts 262°
2026-04-21 01:50 33.96771 -118.24932 2617 ft 177 kts 262°
2026-04-21 01:50 33.96623 -118.26396 2379 ft 175 kts 262°
2026-04-21 01:50 33.96477 -118.27836 2144 ft 174 kts 262°
2026-04-21 01:50 33.96329 -118.29280 1910 ft 172 kts 262°
2026-04-21 01:51 33.96186 -118.30679 1699 ft 167 kts 262°
2026-04-21 01:51 33.96051 -118.32020 1456 ft 157 kts 261°
2026-04-21 01:51 33.95923 -118.33280 1267 ft 144 kts 262°
2026-04-21 01:51 33.95811 -118.34438 1042 ft 136 kts 262°
2026-04-21 01:52 33.95715 -118.35506 887 ft 122 kts 262°
2026-04-21 01:52 33.95534 -118.37603 631 ft 134 kts 260°
2026-04-21 01:52 33.95379 -118.38719 444 ft 136 kts 260°
2026-04-21 01:53 33.95250 -118.39846 237 ft 135 kts 262°
2026-04-21 01:53 33.95134 -118.40949 124 ft 122 kts 264°
2026-04-21 01:53 33.95055 -118.41716 122 ft 68 kts 263°
2026-04-21 01:53 33.94971 -118.42140 119 ft 38 kts 237°
2026-04-21 01:54 33.94881 -118.42269 118 ft 12 kts 214°
2026-04-21 01:54 33.94741 -118.42275 117 ft 26 kts 172°
2026-04-21 01:54 33.94674 -118.42205 117 ft 11 kts 66°
2026-04-21 01:54 33.94698 -118.42095 118 ft 19 kts 84°
2026-04-21 01:55 33.94719 -118.41898 120 ft 25 kts 83°
2026-04-21 01:55 33.94740 -118.41689 121 ft 24 kts 83°
2026-04-21 01:55 33.94762 -118.41476 122 ft 25 kts 83°
2026-04-21 01:55 33.94798 -118.41269 123 ft 24 kts 82°
2026-04-21 01:56 33.94819 -118.41067 123 ft 24 kts 82°
2026-04-21 01:56 33.94839 -118.40868 123 ft 23 kts 84°
2026-04-21 01:56 33.94861 -118.40658 122 ft 26 kts 84°
2026-04-21 01:56 33.94882 -118.40443 121 ft 24 kts 84°
2026-04-21 01:57 33.94860 -118.40299 120 ft 17 kts 156°
2026-04-21 01:57 33.94779 -118.40267 120 ft 2 kts 131°
2026-04-21 01:57 33.94770 -118.40242 120 ft 4 kts 104°
2026-04-21 01:57 33.94758 -118.40198 120 ft 4 kts 109°
2026-04-21 01:58 33.94758 -118.40197 120 ft 0 kts 110°